CAPE
0 0 0 0 0 0 0 0 0 0 0 0 0 1 21 41 307 2072 2088 2534 2144 1693 1347 981 1550 1815 2039 2235 2339 2325 2367 2458 2484 2368 2301 2369 2397 2175 2098 2298 2390 2286 1736 557 493 517 128 0 0
0 0 0 0 0 0 0 0 0 0 0 0 0 0 0 17 1287 2256 2837 2406 1913 1625 1399 1135 1455 1663 1874 2054 2204 2387 2538 2540 2371 2332 2348 2348 2325 2268 2297 2078 1860 1223 594 845 877 162 0 0 0
0 0 0 0 0 0 0 0 0 0 0 0 0 0 0 48 1214 1793 2383 2109 1709 1402 1487 1544 1372 1514 1769 1943 2048 2279 2415 2276 2191 2222 2265 2284 2319 2337 2166 1832 1377 667 1114 757 252 0 0 0 0
0 0 0 0 0 0 0 0 0 0 0 0 0 0 0 247 261 1442 1865 1878 1779 1488 1290 863 1230 1442 1662 1905 1984 2133 2111 1972 1961 1966 2092 2265 2299 2151 1776 1305 832 1270 790 329 4 0 0 0 0
0 0 0 0 0 0 0 0 0 0 0 0 0 0 0 421 588 1381 1677 1804 1891 1928 1642 1337 1102 1347 1630 1826 1950 1920 1791 1693 1747 1851 1997 2120 2065 1692 1223 988 1049 817 250 4 0 0 0 0 0
0 0 0 0 0 0 0 0 0 0 0 0 0 0 0 425 635 1215 1414 2052 2148 2176 1934 1692 1144 1301 1513 1691 1688 1593 1483 1469 1605 1731 1794 1785 1590 1122 970 854 619 262 21 0 0 0 0 0 0
0 0 0 0 0 0 0 0 0 0 0 0 0 0 0 511 554 983 1478 2024 2308 2402 2207 1589 1351 1340 1331 1457 1390 1294 1257 1292 1361 1363 1343 1270 858 709 692 419 94 3 0 0 0 0 0 0 0
0 0 0 0 0 0 0 0 0 0 0 0 0 0 0 579 709 1201 1550 1998 2294 2538 2821 2255 1556 1232 1573 1594 1142 996 1049 974 947 951 934 702 580 443 172 0 0 0 0 0 0 0 0 0 0
0 0 0 0 0 0 0 0 0 0 0 0 0 0 0 0 365 733 1395 1775 2212 2522 2485 2124 1270 1299 1196 1354 1180 901 915 839 755 784 472 227 272 20 0 0 0 0 0 0 0 0 0 0 0
0 0 0 0 0 0 0 0 0 0 0 0 0 0 0 0 0 0 1 1015 1608 2200 2248 1970 1845 1358 1218 1130 1216 1128 1047 931 801 837 272 292 17 0 0 0 0 0 0 0 0 0 0 0 0
0 0 0 0 0 0 0 0 0 0 0 0 0 0 0 0 0 0 0 0 443 1592 1968 1311 1162 1703 1469 1288 1506 1382 1228 933 802 661 374 263 388 59 0 0 0 0 0 0 0 0 0 0 0
0 0 0 0 0 0 0 0 0 0 0 0 0 0 0 0 0 0 0 0 32 1380 1721 1462 1083 1307 1904 1599 1689 1616 1392 1028 786 814 458 298 485 19 0 0 0 0 0 0 0 0 0 0 0
0 0 0 0 0 0 0 0 0 0 0 0 0 0 0 0 0 0 0 0 0 90 1555 1895 1370 1163 1706 2097 1935 1622 1344 1025 732 747 443 278 555 43 0 0 0 0 0 0 0 0 0 0 0
0 0 0 0 0 0 0 0 0 0 0 0 0 0 0 0 0 0 0 0 0 31 661 1791 1809 1455 1422 2217 2019 1857 1484 1044 936 471 200 200 448 52 0 0 0 0 0 0 0 0 0 0 0
0 0 0 0 0 0 0 0 0 0 0 0 0 0 0 0 0 0 0 0 0 0 0 1804 2234 1888 1654 1659 2034 1985 1814 1538 1128 524 176 169 385 105 0 0 0 0 0 0 0 0 0 0 0
0 0 0 0 0 0 0 0 0 0 0 0 0 0 0 0 0 0 0 0 0 0 0 1007 2010 1967 1667 1541 1476 1875 1817 1403 1025 463 231 136 131 0 0 0 0 0 0 0 0 0 0 0 0
0 0 0 0 0 0 0 0 0 0 0 0 0 0 0 0 0 0 0 0 0 0 1 139 2067 1948 1871 1560 1415 1289 1405 1252 878 478 228 162 115 0 0 0 0 0 0 0 0 0 0 0 0
0 0 0 0 0 0 0 0 0 0 0 0 0 0 0 0 0 0 0 0 0 0 0 14 1431 2023 1898 1644 1408 1373 887 446 466 341 182 75 24 0 0 0 0 0 0 0 0 0 0 0 0
0 0 0 0 0 0 0 0 0 0 0 0 0 0 0 0 0 0 0 0 0 0 0 0 0 2079 1889 1761 1474 1137 555 381 194 75 1 0 0 0 0 0 0 0 0 0 0 0 0 0 0
0 0 0 0 0 0 0 0 0 0 0 0 0 0 0 0 0 0 0 0 0 0 0 0 0 0 373 1737 1473 1093 644 301 211 15 0 0 0 0 0 0 0 0 0 0 0 0 0 0 0
0 0 0 0 0 0 0 0 0 0 0 0 0 0 0 0 0 0 0 0 0 0 0 0 0 0 0 3 1298 855 454 118 7 1 0 0 0 0 0 0 0 0 0 0 0 0 0 0 0
0 0 0 0 0 0 0 0 0 0 0 0 0 0 0 0 0 0 0 0 0 0 0 0 0 0 0 0 23 914 355 77 0 0 0 0 0 0 0 0 0 0 0 0 0 0 0 0 0
0 0 0 0 0 0 0 0 0 0 0 0 0 0 0 0 0 0 0 0 0 0 0 0 0 0 0 0 0 0 15 388 142 0 0 0 0 0 0 0 0 0 0 0 0 0 0 0 0
0 0 0 0 0 0 0 0 0 0 0 0 0 0 0 0 0 0 0 0 0 0 4 21 9 1 0 0 0 0 0 0 0 17 0 0 0 0 0 0 0 0 0 0 0 0 0 0 0
0 0 0 0 0 0 0 0 0 0 0 0 0 0 0 0 0 0 0 0 0 0 0 2 2 5 19 5 0 0 0 0 0 0 15 0 0 0 0 0 0 0 0 0 0 0 0 0 0
0 0 0 0 0 0 0 0 0 0 0 0 0 0 0 0 0 0 0 0 0 0 0 30 10 0 0 32 8 1 0 5 0 0 0 8 0 0 0 0 0 0 0 0 0 0 0 0 0
0 0 0 1 0 0 0 0 0 0 0 0 0 0 0 0 0 0 0 0 0 0 0 48 37 29 6 0 17 10 16 3 4 0 0 8 7 0 0 0 0 0 0 0 0 0 0 0 0
0 0 9 5 2 3 0 0 0 0 0 0 0 0 0 0 0 0 0 0 0 0 0 2 66 28 31 0 0 3 12 17 0 0 0 0 30 0 0 0 0 0 0 0 0 0 0 0 0
0 0 1 1 0 2 0 0 0 0 0 0 0 0 0 0 0 0 0 0 0 0 2 6 49 32 12 0 7 3 14 11 3 1 1 0 27 0 0 1 0 0 0 0 0 0 0 0 0
0 0 0 3 0 5 0 0 0 0 0 0 0 0 0 0 0 0 0 0 0 12 0 0 6 1 0 0 10 5 0 5 0 0 0 14 5 0 2 0 0 0 0 0 0 0 0 0 0
CIN
0 0 0 0 0 0 0 0 0 0 0 0 0 -47 -131 -93 -64 -33 -158 -149 -169 -415 -526 -599 -469 -349 -271 -197 -149 -119 -91 -64 -42 -28 -24 -19 -9 -16 -18 -1 -1 -3 -14 -111 -136 -123 -225 0 0
0 0 0 0 0 0 0 0 0 0 0 0 0 0 0 -30 -45 -86 -120 -162 -167 -359 -470 -504 -455 -322 -241 -197 -143 -101 -51 -41 -40 -28 -8 -9 -5 -5 -1 -3 -10 -46 -108 -80 -72 -227 0 0 0
0 0 0 0 0 0 0 0 0 0 0 0 0 0 0 -79 -91 -60 -159 -185 -166 -231 -371 -377 -415 -335 -213 -163 -138 -100 -61 -59 -52 -27 -12 -1 -2 0 -1 -13 -30 -86 -35 -69 -172 -12 0 0 0
0 0 0 0 0 0 0 0 0 0 0 0 0 0 0 -108 -157 -131 -173 -188 -167 -157 -281 -550 -399 -314 -248 -157 -131 -88 -84 -78 -71 -42 -15 -1 0 -1 -9 -36 -77 -23 -61 -148 -127 0 0 0 0
0 0 0 0 0 0 0 0 0 0 0 0 0 0 0 -71 -155 -193 -173 -139 -125 -108 -194 -393 -400 -291 -214 -143 -91 -93 -104 -92 -80 -35 -10 -2 -1 -12 -50 -68 -63 -74 -160 -153 0 0 0 0 0
0 0 0 0 0 0 0 0 0 0 0 0 0 0 0 -71 -56 -200 -185 -122 -93 -58 -154 -256 -370 -290 -192 -142 -111 -113 -144 -107 -83 -39 -14 -4 -11 -56 -67 -74 -106 -167 -242 0 0 0 0 0 0
0 0 0 0 0 0 0 0 0 0 0 0 0 0 0 -52 -82 -189 -169 -121 -86 -33 -84 -251 -257 -235 -203 -157 -165 -162 -139 -112 -88 -72 -57 -58 -114 -121 -93 -125 -208 -60 0 0 0 0 0 0 0
0 0 0 0 0 0 0 0 0 0 0 0 0 0 0 -26 -66 -161 -175 -129 -70 -19 -8 -110 -203 -232 -153 -138 -189 -199 -181 -154 -142 -142 -123 -156 -171 -178 -236 0 0 0 0 0 0 0 0 0 0
0 0 0 0 0 0 0 0 0 0 0 0 0 0 0 0 -84 -95 -121 -131 -61 -29 -21 -94 -214 -183 -182 -147 -179 -205 -181 -169 -164 -142 -210 -257 -203 -235 0 0 0 0 0 0 0 0 0 0 0
0 0 0 0 0 0 0 0 0 0 0 0 0 0 0 0 0 0 -67 -60 -101 -47 -58 -66 -87 -150 -158 -153 -155 -151 -159 -159 -153 -134 -259 -214 -251 0 0 0 0 0 0 0 0 0 0 0 0
0 0 0 0 0 0 0 0 0 0 0 0 0 0 0 0 0 0 0 0 -147 -107 -87 -220 -172 -96 -108 -115 -92 -107 -103 -135 -150 -184 -225 -204 -127 -206 0 0 0 0 0 0 0 0 0 0 0
0 0 0 0 0 0 0 0 0 0 0 0 0 0 0 0 0 0 0 0 -224 -74 -96 -220 -264 -136 -55 -58 -58 -42 -51 -89 -122 -117 -188 -173 -90 -235 0 0 0 0 0 0 0 0 0 0 0
0 0 0 0 0 0 0 0 0 0 0 0 0 0 0 0 0 0 0 0 0 -171 -106 -119 -282 -261 -96 -22 -38 -53 -56 -73 -107 -92 -174 -185 -58 -219 0 0 0 0 0 0 0 0 0 0 0
0 0 0 0 0 0 0 0 0 0 0 0 0 0 0 0 0 0 0 0 -44 -258 -96 -119 -174 -239 -177 -30 -17 -24 -28 -93 -89 -157 -192 -160 -44 -255 0 0 0 0 0 0 0 0 0 0 0
0 0 0 0 0 0 0 0 0 0 0 0 0 0 0 0 0 0 0 0 0 0 -23 -116 -116 -210 -185 -139 -39 -21 -10 -18 -61 -171 -257 -172 -69 -137 0 0 0 0 0 0 0 0 0 0 0
0 0 0 0 0 0 0 0 0 0 0 0 0 0 0 0 0 0 0 0 0 0 0 -67 -124 -184 -198 -177 -116 -35 -11 -24 -65 -242 -325 -305 -164 -15 0 0 0 0 0 0 0 0 0 0 0
0 0 0 0 0 0 0 0 0 0 0 0 0 0 0 0 0 0 0 0 0 0 -177 -265 -149 -184 -159 -138 -106 -95 -62 -29 -95 -205 -314 -341 -281 0 0 0 0 0 0 0 0 0 0 0 0
0 0 0 0 0 0 0 0 0 0 0 0 0 0 0 0 0 0 0 0 0 0 0 -525 -86 -112 -133 -110 -68 -39 -95 -248 -180 -210 -339 -440 -301 0 0 0 0 0 0 0 0 0 0 0 0
0 0 0 0 0 0 0 0 0 0 0 0 0 0 0 0 0 0 0 0 0 0 0 0 -1 -33 -66 -63 -75 -85 -219 -242 -331 -424 -35 0 0 0 0 0 0 0 0 0 0 0 0 0 0
0 0 0 0 0 0 0 0 0 0 0 0 0 0 0 0 0 0 0 0 0 0 0 0 0 0 -74 -23 -61 -110 -228 -357 -381 -572 0 0 0 0 0 0 0 0 0 0 0 0 0 0 0
0 0 0 0 0 0 0 0 0 0 0 0 0 0 0 0 0 0 0 0 0 0 0 0 0 0 0 -10 -27 -52 -247 -484 -303 -346 0 0 0 0 0 0 0 0 0 0 0 0 0 0 0
0 0 0 0 0 0 0 0 0 0 0 0 0 0 0 0 0 0 0 0 0 0 0 0 0 0 0 0 -8 -21 -207 -461 0 0 0 0 0 0 0 0 0 0 0 0 0 0 0 0 0
0 0 0 0 0 0 0 0 0 0 0 0 0 0 0 0 0 0 0 0 0 0 0 0 0 0 0 0 0 0 -300 -105 -228 0 0 0 0 0 0 0 0 0 0 0 0 0 0 0 0
0 0 0 0 0 0 0 0 0 0 0 0 0 0 0 0 0 0 0 0 0 0 -15 -18 -15 -4 0 0 0 0 0 0 0 -44 0 0 0 0 0 0 0 0 0 0 0 0 0 0 0
0 0 0 0 0 0 0 0 0 0 0 0 0 0 0 0 0 0 0 0 0 0 0 -12 -6 -13 -22 -17 0 0 0 0 0 0 -9 0 0 0 0 0 0 0 0 0 0 0 0 0 0
0 0 0 0 0 0 0 0 0 0 0 0 0 0 0 0 0 0 0 0 0 0 0 -23 -15 0 0 -21 -26 -5 0 -60 0 0 0 -29 0 0 0 0 0 0 0 0 0 0 0 0 0
0 0 0 -1 0 0 0 0 0 0 0 0 0 0 0 0 0 0 0 0 0 0 0 -19 -19 -7 -20 0 -27 -12 -44 -47 -93 0 0 -100 -19 0 0 0 0 0 0 0 0 0 0 0 0
0 -1 -1 -3 -8 -1 0 0 0 0 0 0 0 0 0 0 0 0 0 0 0 0 0 -19 -15 -16 -15 0 -14 -38 -77 -125 0 0 0 0 -70 0 0 -1 -1 0 0 0 0 0 0 0 0
0 0 -1 -1 0 -4 0 0 0 0 0 0 0 0 0 0 0 0 0 0 0 0 -7 -27 -16 -11 -13 0 -82 -97 -105 -42 -4 -1 -1 0 -9 0 0 0 0 0 0 0 0 0 0 0 0
0 0 -3 -10 -1 -5 -1 0 0 0 0 0 0 0 0 0 0 0 0 0 0 -20 0 0 -51 -34 0 0 -35 -65 0 -7 0 -1 0 -1 -2 0 0 0 0 0 0 -1 0 0 0 0 0
Wind_Speed
7 11 10 9 7 8 16 13 10 9 8 10 7 8 8 8 9 5 3 7 1 16 16 18 16 15 15 14 13 14 15 16 16 15 14 14 13 12 11 10 10 11 8 7 7 8 7 6 6
11 18 9 8 9 12 2 10 4 14 9 5 7 3 8 7 13 12 9 3 5 17 14 14 15 13 13 14 13 14 15 16 16 15 14 14 13 13 12 11 9 8 7 8 9 8 8 7 6
11 16 7 8 12 14 6 8 11 10 4 4 8 8 8 4 11 6 7 5 5 14 14 14 13 14 12 13 13 14 15 16 15 15 15 14 14 13 12 10 9 8 8 8 7 7 8 8 6
8 8 7 8 15 19 6 9 7 7 6 7 4 9 5 12 3 7 9 7 6 10 13 19 15 12 14 14 14 13 14 15 15 15 15 15 14 13 12 9 10 9 9 8 8 7 8 7 6
9 7 7 9 16 22 6 3 4 6 7 10 10 11 7 9 11 9 6 5 5 8 10 17 18 12 12 14 13 14 14 14 15 14 14 15 14 13 11 10 11 10 9 9 9 8 8 7 5
6 6 8 11 16 15 13 13 11 5 9 9 9 11 2 10 10 8 5 5 3 5 13 13 17 15 10 12 12 12 14 13 15 15 15 16 14 12 12 11 12 11 10 10 10 8 8 7 4
10 9 14 16 17 19 16 9 5 6 9 12 16 10 9 16 10 9 5 3 2 3 12 13 11 11 10 9 11 12 12 12 13 14 13 13 14 13 13 11 11 13 12 11 10 9 8 7 5
9 8 17 15 15 18 17 12 6 6 11 7 5 7 7 11 9 8 5 5 1 2 5 11 11 11 11 10 9 10 13 12 11 12 11 13 14 14 14 12 12 13 13 13 11 10 9 7 5
13 9 13 17 19 17 15 18 14 17 13 13 11 9 10 6 11 10 7 6 3 4 4 8 10 9 9 10 10 12 13 14 12 11 14 12 7 9 12 11 14 13 13 14 13 11 10 8 5
10 11 19 19 19 19 19 18 16 16 18 16 14 11 5 11 10 9 5 8 10 9 8 4 6 9 9 8 8 9 8 8 9 9 10 7 9 8 9 11 15 12 12 13 14 13 12 10 4
17 17 18 18 22 21 20 21 17 16 18 15 17 15 13 13 6 7 6 9 9 14 11 12 7 8 11 9 7 6 6 6 7 10 9 8 8 8 6 6 6 6 11 6 8 7 6 7 5
19 20 20 23 18 20 18 16 18 17 18 17 17 15 12 11 11 9 7 9 8 15 14 17 16 9 10 8 7 8 7 7 7 8 11 7 6 8 9 7 8 7 6 7 6 5 6 7 6
21 22 20 21 19 17 16 17 20 20 20 18 17 11 9 6 8 9 9 7 7 5 14 15 18 16 12 11 7 8 9 8 8 8 9 9 8 8 8 9 8 8 8 7 5 5 4 4 4
21 23 21 17 20 18 21 21 18 18 17 14 11 7 4 4 6 5 4 5 6 5 7 14 18 16 15 12 12 9 10 12 11 9 10 11 8 6 8 8 9 9 9 8 6 5 5 5 5
15 18 19 20 21 22 20 19 14 21 12 7 6 3 1 5 6 6 5 5 4 5 7 16 17 18 16 15 11 9 9 10 9 10 14 13 9 7 10 7 9 9 8 9 6 6 5 4 4
18 20 20 20 23 20 7 13 14 6 7 7 4 6 12 10 7 6 6 5 6 6 5 5 13 16 14 13 11 7 8 9 9 11 11 16 12 7 9 7 6 4 6 8 6 7 6 6 5
15 18 22 21 14 13 13 14 12 10 7 10 15 13 6 6 8 4 10 19 16 10 12 8 13 15 15 12 9 10 6 8 9 10 9 16 15 14 10 6 5 6 5 5 8 7 8 7 6
17 20 20 18 16 10 12 14 12 12 16 14 14 12 9 8 12 17 18 17 17 18 17 14 4 9 13 8 8 7 5 7 7 8 9 14 12 14 10 8 9 7 7 7 8 8 6 9 9
22 21 22 20 18 18 16 16 14 14 16 17 15 10 1 11 14 15 13 13 13 12 15 15 16 4 7 8 9 9 10 8 7 7 10 11 12 15 12 9 9 11 10 10 10 8 10 9 9
18 20 21 22 19 18 17 14 15 20 21 20 12 12 15 12 12 11 12 11 9 8 7 10 14 15 7 6 8 8 9 8 9 7 8 12 15 15 14 15 13 14 11 12 13 13 9 7 11
20 21 19 21 21 18 17 20 22 9 10 19 17 15 11 10 9 9 9 6 7 8 7 10 11 15 14 11 6 6 2 2 6 8 9 13 16 18 18 18 14 15 13 13 16 14 16 13 11
21 17 19 19 15 14 14 13 13 8 9 17 14 10 8 8 8 8 9 8 7 5 7 8 9 8 10 12 10 6 9 9 8 10 11 11 17 18 19 19 16 17 13 16 15 14 14 14 16
18 15 15 17 16 18 16 14 9 17 18 14 10 11 8 10 10 10 10 9 7 7 6 6 7 10 7 9 8 5 8 10 9 8 12 14 14 18 18 20 19 16 14 15 18 17 17 13 14
21 20 16 14 11 15 15 15 2 9 18 14 11 8 6 7 6 7 8 8 10 9 4 3 5 6 7 8 9 9 4 6 9 12 10 11 12 13 18 18 18 15 17 16 16 17 17 14 14
10 11 6 9 9 12 9 15 9 12 15 15 10 7 7 6 8 9 11 10 7 7 9 9 11 9 5 6 9 11 9 6 8 10 11 14 12 12 16 18 17 14 16 16 17 16 16 14 15
19 18 9 10 12 14 17 12 8 17 17 14 9 6 7 11 10 11 11 10 8 8 7 8 13 16 14 7 7 8 14 9 8 11 10 11 15 16 20 19 19 19 17 16 18 13 13 12 11
18 24 16 18 16 11 8 12 11 16 15 13 11 11 10 9 10 11 11 9 10 10 10 5 7 10 11 14 12 13 11 15 15 16 17 12 18 15 19 22 21 20 19 18 17 15 15 12 12
24 10 16 7 6 9 9 11 8 12 11 10 12 11 12 14 13 11 9 9 12 12 10 11 9 9 9 11 13 13 16 14 17 17 19 20 20 21 19 21 21 19 17 17 19 13 15 13 9
9 7 5 7 7 4 5 5 10 10 9 11 11 12 14 14 11 11 10 12 12 14 14 17 14 14 13 12 13 15 14 15 17 16 19 22 21 22 20 21 19 18 18 17 17 15 14 16 12
16 11 7 5 5 1 3 9 6 7 12 13 14 14 14 13 14 13 14 13 13 10 13 14 14 17 18 19 12 14 15 16 15 16 19 22 18 16 18 19 19 19 18 18 19 19 17 16 15
Wind_Direction
272 239 230 248 246 224 256 254 74 96 106 40 349 348 341 308 358 54 113 90 272 131 143 151 143 146 145 143 141 145 145 143 141 140 139 135 133 131 124 120 123 123 131 118 112 106 95 83 71
299 290 248 277 253 266 286 35 74 77 54 3 318 348 321 8 44 119 121 86 254 133 147 155 145 144 144 142 141 146 148 145 143 142 143 139 136 133 129 128 138 129 132 118 108 111 98 79 62
265 264 276 231 238 266 357 63 347 85 80 24 313 346 304 72 77 79 95 113 240 137 150 151 145 142 144 143 144 149 150 147 146 146 145 142 139 138 139 143 130 135 117 111 113 106 100 89 71
256 248 241 261 281 297 327 8 15 327 322 147 299 309 2 50 71 65 110 141 187 147 152 135 140 150 151 153 152 150 146 147 145 147 147 146 144 140 133 132 125 111 114 124 125 115 100 91 87
257 267 265 263 263 269 51 29 350 320 308 320 315 304 327 73 75 86 97 122 181 152 141 150 145 151 159 154 154 150 145 147 144 145 145 145 144 139 131 125 119 119 136 142 133 126 113 101 83
280 247 268 260 273 325 340 58 27 347 313 293 284 290 356 133 104 81 70 106 180 159 124 144 150 149 160 161 155 152 149 152 147 147 146 146 148 140 136 125 127 132 139 139 138 132 122 107 93
254 286 275 304 303 299 297 100 62 321 298 297 355 336 318 67 77 60 61 86 201 163 130 134 160 158 151 165 163 157 151 153 152 152 155 148 135 126 126 131 135 137 135 143 141 136 125 123 110
261 262 268 265 271 278 286 318 103 259 287 320 293 292 272 117 113 106 85 0 171 134 125 142 160 173 176 180 172 165 154 155 157 156 148 138 132 134 136 139 149 145 150 149 146 141 131 123 123
257 261 261 265 271 296 328 322 331 335 313 308 295 256 255 294 153 163 151 140 265 160 166 122 155 173 188 193 176 167 161 162 157 147 135 131 141 147 146 169 151 154 156 152 151 145 138 138 151
213 248 249 266 302 313 328 322 323 317 303 298 304 299 296 214 231 197 201 185 173 191 154 153 159 171 193 195 172 184 169 177 174 169 159 157 153 166 171 148 149 155 155 151 153 152 159 167 162
236 247 265 279 286 315 309 299 298 299 292 300 307 316 311 304 287 295 239 228 205 187 172 168 180 186 190 201 176 177 176 176 182 170 168 171 174 175 142 138 148 151 160 163 159 165 186 212 164
264 260 263 268 286 299 294 295 294 286 283 284 283 283 280 275 271 263 250 246 219 170 184 166 175 191 200 203 183 182 179 180 185 182 174 179 198 174 154 163 167 169 178 165 179 186 211 206 165
273 270 278 281 280 279 290 278 280 279 277 276 279 275 271 269 308 276 254 250 263 217 169 171 172 180 190 207 178 186 183 184 188 182 181 184 206 184 174 170 174 179 184 162 181 196 161 120 106
284 291 287 295 288 280 278 276 274 274 277 265 283 275 345 350 296 311 306 284 293 299 170 175 169 177 182 189 205 191 187 189 187 172 185 199 213 180 189 171 179 183 179 172 177 147 146 144 137
295 292 287 275 269 267 264 274 268 261 291 207 266 262 87 231 209 220 261 268 261 250 240 168 170 174 185 191 198 200 195 196 177 177 183 195 218 200 191 189 191 182 170 157 152 144 140 144 147
277 273 270 271 262 251 200 262 278 328 6 271 216 272 281 305 299 329 309 285 289 304 318 166 160 171 183 191 195 199 203 187 185 178 182 188 201 216 197 200 193 175 154 158 149 157 162 149 143
246 256 266 281 274 212 214 256 277 291 229 244 266 284 299 297 279 285 34 25 4 21 7 347 163 171 185 192 200 208 173 197 204 190 185 188 192 196 188 187 180 169 162 171 157 167 159 156 141
250 242 245 250 256 268 271 271 299 304 287 269 263 256 237 244 62 50 39 27 15 13 6 356 127 179 177 187 193 207 216 192 200 216 197 188 187 189 191 190 177 172 171 173 163 172 173 162 150
263 272 279 291 305 299 283 280 286 279 268 268 258 265 130 79 66 53 42 28 18 13 7 357 352 166 181 187 194 200 203 202 210 196 197 198 192 191 196 190 191 180 179 185 174 169 175 164 155
245 259 264 266 278 273 278 288 291 273 262 253 261 68 61 57 48 38 35 32 16 10 12 5 356 350 321 218 211 204 204 208 202 196 200 194 198 198 196 199 191 184 180 182 180 182 176 163 154
243 253 270 284 287 291 299 279 273 219 121 89 85 87 74 58 45 31 23 14 24 1 21 23 11 347 338 359 217 231 215 220 196 201 201 204 206 200 201 202 200 186 192 186 181 183 181 169 166
250 250 255 266 288 280 297 289 279 259 107 101 96 90 67 42 38 28 29 2 358 339 13 7 354 340 328 344 359 244 228 222 226 215 208 204 203 206 206 203 202 185 190 192 188 182 181 172 172
260 266 268 284 282 287 263 263 242 240 139 126 114 88 69 49 25 21 4 359 348 19 359 12 347 314 327 336 340 23 319 281 244 219 219 209 202 209 210 201 203 194 194 191 183 186 183 180 183
242 245 259 268 274 260 253 242 354 232 127 131 114 99 79 75 49 17 358 357 357 346 344 290 274 303 334 332 321 325 327 335 322 282 227 211 208 202 207 210 206 197 194 191 182 183 187 183 180
217 212 228 222 216 249 226 228 188 97 109 125 125 98 62 44 26 358 345 341 352 335 345 337 327 302 271 290 317 314 301 295 286 288 277 243 202 200 203 203 204 203 195 189 184 188 184 176 178
207 206 198 222 224 253 236 234 222 112 128 122 101 70 20 7 8 347 349 348 340 335 346 338 348 336 332 308 292 302 307 293 276 283 283 261 233 205 195 201 198 194 194 188 180 187 186 173 166
204 219 224 273 285 286 251 274 288 79 71 48 27 7 359 349 346 334 346 345 339 343 335 327 311 308 328 320 317 299 286 291 289 282 282 279 234 214 200 196 196 191 186 184 181 173 186 168 162
236 250 208 216 192 223 251 257 261 62 39 21 6 355 346 342 335 328 343 348 351 335 323 316 293 295 296 303 297 292 287 279 284 287 282 282 237 213 196 195 195 186 181 180 176 176 163 171 150
181 230 179 209 225 247 273 240 85 50 30 7 344 334 332 321 328 338 348 343 338 328 337 337 338 332 311 300 294 296 291 279 283 282 286 283 234 199 192 191 178 173 171 172 171 162 168 164 155
210 204 161 186 199 206 323 241 33 40 12 342 324 320 314 321 325 333 332 327 330 338 325 323 324 321 312 302 296 298 295 288 287 287 289 282 235 199 183 173 168 165 165 168 168 159 165 169 168